RH
70 68 65 62 58 56 56 56 56 56 57 57 59 61 62 62 61 60 60 61 63 67 71 75 81 88 93 93 93 93 93 93 92 93 93 93 94 94 93 93 93 93 93 93 94 94 94 94 94 94 94 94 94 93 93 92 90 89 88 88 87 87 86 86 87 88 89 87 84 79 75 70 66 63 61 61 60 59 57 54 52 49 47 46 46 46
67 66 63 60 58 56 55 55 56 56 56 57 58 60 63 64 65 65 65 66 68 72 76 79 85 90 94 93 93 93 94 93 93 93 93 94 94 93 93 92 92 91 91 92 93 93 94 94 94 94 94 93 93 93 92 92 90 89 89 90 89 89 88 88 89 89 87 85 82 78 73 69 66 65 64 63 60 57 53 51 49 47 46 46 47 48
65 64 63 62 61 60 60 60 60 60 60 59 59 60 61 63 65 67 69 70 73 77 82 85 88 91 93 93 93 93 93 93 93 93 93 94 94 94 93 92 91 91 91 91 92 93 93 94 94 94 94 93 92 91 91 90 90 90 91 90 90 89 89 89 88 87 85 83 80 76 71 68 67 67 66 63 58 54 50 48 47 47 47 48 49 50
65 66 66 66 66 66 67 67 67 68 67 67 66 64 63 64 65 66 69 73 76 81 85 89 91 93 93 93 93 93 93 93 93 93 93 93 94 94 93 92 92 92 92 92 92 93 93 94 94 94 93 92 91 90 89 89 90 91 91 91 90 89 89 88 86 84 83 82 78 74 70 68 69 69 66 61 56 51 49 47 47 47 48 49 50 50
71 72 72 72 72 72 73 73 74 74 74 73 73 71 70 68 66 66 67 72 77 82 87 91 93 93 93 93 93 93 93 93 93 93 94 93 93 93 93 92 92 92 93 93 93 93 93 93 93 93 92 91 90 89 88 89 91 92 91 91 89 88 87 85 83 82 81 80 78 74 70 70 70 69 65 60 55 51 48 47 47 47 48 49 50 50
76 77 78 78 78 79 79 80 80 80 79 78 77 76 74 72 70 68 68 71 77 83 86 89 91 92 93 93 93 93 93 93 93 93 93 93 93 92 92 92 93 93 94 93 94 93 93 93 93 92 92 91 90 89 88 89 90 91 91 90 88 86 83 82 81 81 80 80 78 76 72 72 71 68 64 60 55 51 48 47 47 48 48 49 50 50
77 78 79 80 82 84 85 86 86 87 86 85 84 82 80 77 74 72 70 73 77 82 85 87 89 91 92 93 93 94 94 94 93 93 93 93 92 93 93 93 94 94 94 94 94 93 93 93 92 92 92 91 90 88 87 88 89 91 91 89 86 84 81 80 80 80 81 82 81 78 74 73 71 68 64 60 56 52 49 48 48 48 49 49 50 50
81 81 81 81 82 84 86 88 89 91 92 91 91 90 88 87 84 82 80 79 81 84 86 88 90 91 92 92 93 93 94 94 94 94 94 93 93 94 94 94 94 94 94 94 94 93 93 93 93 92 91 90 89 87 86 87 88 89 89 87 84 82 81 80 81 82 83 84 83 80 75 73 71 68 65 60 56 52 49 49 49 49 49 49 50 51
83 84 84 84 83 83 83 85 87 90 91 92 92 92 92 93 91 89 89 88 88 89 90 91 91 91 92 92 92 92 93 93 94 94 94 94 94 94 94 94 94 94 94 94 94 94 93 93 93 92 91 90 89 88 87 87 87 87 86 85 83 82 81 82 83 84 86 87 85 81 77 74 71 68 65 60 56 52 50 50 50 50 49 50 51 52
81 83 85 86 83 81 79 81 83 85 88 90 92 92 92 92 91 91 91 91 92 92 93 92 91 91 91 92 92 92 92 93 94 94 94 94 94 94 94 93 93 93 94 94 94 94 94 93 93 93 92 91 90 89 88 87 86 85 84 83 83 83 82 83 84 86 87 87 84 81 78 75 72 68 64 60 56 53 51 51 50 50 50 51 52 53
76 77 80 81 80 78 77 78 79 81 83 87 90 91 91 89 88 88 90 91 91 91 91 89 88 88 89 91 92 92 92 93 94 94 94 94 94 93 93 93 93 93 93 94 94 94 94 94 94 93 93 92 91 89 88 86 84 83 82 83 83 83 83 84 85 86 86 85 83 80 78 75 72 69 64 60 57 54 53 52 50 50 51 52 53 53
75 74 75 74 74 73 74 75 77 78 80 83 86 88 88 86 85 85 86 88 90 90 90 89 87 87 87 88 90 91 92 93 94 94 94 94 94 94 93 93 92 92 92 93 93 94 94 94 94 93 93 92 90 89 87 85 83 83 83 83 84 85 85 85 86 85 84 82 81 80 78 76 73 69 65 61 58 56 54 51 50 51 53 54 54 53
74 74 74 73 71 70 69 71 74 76 77 79 81 83 84 84 84 83 83 84 85 87 89 90 91 90 88 87 88 89 91 92 93 94 94 94 94 94 93 93 93 92 92 92 93 93 93 94 94 93 92 91 90 88 86 85 84 84 84 85 86 86 86 86 86 84 82 81 79 79 78 76 73 69 64 61 58 56 52 51 52 53 55 55 54 53
74 73 73 73 72 71 69 68 69 71 73 75 77 79 81 82 83 83 83 83 83 84 86 90 91 91 92 90 88 88 89 91 92 93 93 93 93 93 93 93 93 93 93 93 93 93 93 93 93 92 92 90 89 88 86 85 85 86 87 88 88 88 88 87 85 83 81 79 79 78 77 75 71 67 63 61 57 54 52 53 54 55 56 56 54 51
74 74 74 73 73 72 72 71 70 69 69 71 73 75 77 79 81 82 83 83 83 82 83 88 91 92 92 92 91 89 88 89 91 92 93 93 93 93 93 93 93 93 93 93 93 93 93 93 92 92 91 90 89 88 88 88 88 89 90 90 90 89 88 86 83 81 79 79 78 78 77 73 69 66 63 60 56 54 53 55 56 57 57 56 53 49
75 75 76 75 75 75 75 74 74 73 72 71 72 72 74 76 78 79 81 83 83 83 82 85 89 91 92 92 91 90 88 88 90 92 93 93 93 93 93 93 93 93 93 93 93 93 93 92 91 91 90 90 90 90 90 90 91 91 91 90 90 89 87 84 82 80 79 79 78 77 74 70 67 64 62 58 55 55 56 57 58 58 58 55 51 45
74 75 76 77 77 77 77 77 76 76 76 75 75 74 74 74 75 76 77 79 82 83 83 83 85 88 90 91 91 90 88 87 88 90 92 93 92 92 92 93 93 93 93 93 92 92 91 91 90 90 90 91 91 92 92 92 92 91 91 90 89 87 86 84 82 80 79 79 77 74 70 68 65 63 60 57 56 57 59 59 59 59 58 53 48 42
72 74 76 77 78 78 78 79 79 78 78 78 78 77 77 76 76 75 75 76 78 81 82 82 82 83 84 87 88 87 86 85 85 86 90 91 92 92 92 92 92 93 93 92 92 91 90 90 90 90 91 92 93 93 93 92 91 90 90 89 88 87 86 84 82 80 79 77 74 71 68 67 64 62 58 57 59 60 61 61 61 59 56 50 44 40
66 70 73 76 78 78 79 80 80 81 80 80 80 80 79 79 78 77 77 76 76 77 79 80 80 80 79 80 81 82 82 82 82 83 86 88 91 93 93 93 93 93 93 92 91 90 89 89 90 91 92 93 93 93 93 92 91 90 89 88 87 87 85 84 82 80 78 75 72 69 67 65 63 60 58 60 61 62 62 62 61 58 53 46 41 39
58 62 67 71 75 78 79 80 81 82 82 82 81 80 80 80 80 79 78 77 76 76 76 76 76 76 76 76 76 77 78 79 80 81 84 86 88 90 92 93 93 92 92 91 90 89 89 90 91 92 93 94 94 93 93 92 91 89 89 88 87 86 85 84 82 80 77 73 70 68 66 63 61 60 61 63 63 63 63 63 60 55 48 43 40 39
49 54 58 63 68 74 78 81 82 82 83 82 82 82 81 80 80 80 79 78 78 77 76 74 73 73 73 75 76 77 77 77 78 79 82 85 87 88 89 91 91 91 91 90 89 89 90 91 92 93 94 94 93 93 92 91 90 89 88 88 87 86 85 84 82 78 75 71 68 66 64 62 61 62 64 65 65 64 64 62 57 50 43 41 39 39
40 46 51 55 60 66 73 77 80 82 82 82 82 82 82 82 81 80 79 78 77 77 76 75 74 74 75 79 82 82 81 80 78 79 80 83 85 87 88 89 89 89 89 89 89 90 92 93 94 94 94 93 93 92 91 91 90 89 88 88 87 86 85 83 81 77 73 70 67 65 63 63 63 65 67 66 66 65 65 59 52 46 41 40 39 39
30 36 41 47 53 59 65 71 76 80 82 83 82 82 82 83 83 83 81 79 77 76 75 74 74 75 78 84 88 90 89 86 83 80 80 81 83 85 87 88 89 89 89 90 92 93 94 94 94 93 93 92 92 91 91 90 90 89 88 87 87 86 85 82 79 76 72 69 67 65 65 66 67 68 68 67 67 66 62 54 48 43 40 39 39 39
24 27 31 37 44 50 57 64 70 75 79 81 82 83 83 84 85 85 85 83 80 77 74 73 73 75 78 85 91 93 92 90 87 84 80 79 79 81 83 86 89 91 92 92 93 93 93 93 93 92 92 91 91 90 90 89 88 88 87 87 87 85 84 81 77 74 71 69 68 68 68 70 70 70 68 68 67 64 58 50 44 41 40 39 39 39
21 22 24 27 33 40 48 56 63 69 74 79 81 83 84 84 85 87 87 87 84 81 77 74 73 75 78 85 90 93 93 92 90 88 84 80 78 77 79 84 88 92 92 93 93 92 92 92 92 91 91 90 89 89 88 87 86 86 85 86 85 84 81 78 75 73 71 71 71 72 73 73 72 70 68 68 66 60 52 46 42 41 40 39 39 41
22 21 21 22 25 30 37 46 55 62 69 75 79 82 84 84 85 86 87 88 87 84 81 77 75 75 77 82 87 91 93 92 91 90 88 83 79 76 77 83 89 92 92 93 93 92 92 92 91 91 90 89 88 87 87 86 85 84 84 83 82 80 78 75 74 73 73 74 74 75 75 73 71 69 68 67 62 55 47 43 41 41 40 40 41 43
23 22 21 20 21 23 27 35 44 53 62 70 75 80 82 83 83 84 86 87 87 86 84 80 77 75 75 79 84 88 91 91 91 91 90 87 82 78 77 83 88 92 93 93 92 92 92 92 91 90 89 88 87 86 86 85 84 83 83 81 79 76 74 74 74 74 75 76 76 76 74 72 70 69 68 64 57 50 44 42 41 41 41 41 43 46
24 23 22 21 20 21 22 26 33 42 52 61 70 76 80 82 83 85 85 85 85 86 86 83 80 77 75 77 80 85 88 89 90 91 91 89 85 81 79 81 85 89 92 92 92 92 92 92 91 90 88 87 86 86 86 86 85 83 82 80 78 76 74 74 75 76 77 77 76 75 73 70 69 68 66 59 52 45 42 42 41 41 42 43 45 49
25 24 24 23 22 21 21 22 25 30 38 48 59 68 76 80 83 85 85 84 85 85 86 85 82 80 77 77 79 82 85 86 88 89 90 90 88 85 81 80 82 85 88 90 91 92 91 91 91 90 88 88 88 88 88 87 85 84 83 81 79 78 77 77 78 78 78 77 76 74 71 69 69 66 62 54 47 43 41 42 42 43 43 45 48 52
25 25 25 24 24 22 21 21 22 23 27 34 44 54 65 74 80 83 84 84 85 86 86 86 84 82 80 79 80 81 83 85 86 87 88 89 89 87 84 82 81 82 85 88 90 90 90 91 91 90 90 90 90 89 89 87 86 85 84 83 82 82 81 81 80 80 79 77 75 73 70 69 67 63 56 48 44 42 42 42 43 44 45 47 50 54
25 25 25 25 25 24 23 22 21 21 22 25 31 39 49 61 71 78 83 84 85 86 87 86 86 85 83 82 83 84 85 85 86 87 87 89 89 88 87 85 84 83 85 87 88 88 88 89 90 91 92 91 91 90 89 88 87 86 86 86 85 85 84 83 82 80 79 77 74 72 70 68 65 59 50 45 42 41 42 43 45 46 47 49 52 55
25 25 25 26 26 26 25 23 22 21 21 22 25 29 36 46 57 69 78 82 84 85 86 87 87 87 86 85 85 86 86 87 87 88 88 88 89 89 89 88 87 86 85 86 87 87 87 88 89 90 91 91 91 90 90 89 88 88 88 87 87 86 85 84 82 80 78 76 73 71 69 67 61 54 46 42 41 41 42 44 46 48 49 52 55 57
25 25 25 25 26 26 26 25 24 23 21 21 22 25 29 36 45 57 69 78 83 85 86 87 88 89 89 88 87 87 88 89 88 88 89 90 90 91 90 90 89 88 87 87 87 87 87 88 89 89 89 88 89 89 89 89 88 88 88 88 88 86 85 83 81 79 76 74 72 70 68 64 56 49 43 41 41 42 43 45 47 49 51 54 56 58
25 25 25 25 25 25 26 26 26 25 23 22 22 24 27 32 38 47 58 70 79 85 87 87 88 89 90 90 89 88 88 88 88 88 89 90 91 91 91 91 90 89 88 89 89 89 89 89 88 88 87 87 87 87 87 87 87 87 88 88 87 86 84 82 79 76 74 72 71 69 66 59 51 44 41 41 41 42 45 47 49 51 53 56 58 59
24 24 25 25 25 25 25 25 25 26 25 24 23 24 26 30 35 41 49 61 72 81 87 88 89 89 90 90 90 89 89 88 87 87 88 89 90 90 90 91 91 91 90 90 90 90 90 89 88 88 87 86 86 85 86 86 87 87 87 87 87 85 83 80 76 74 72 71 70 67 62 53 46 42 40 41 42 44 46 49 51 53 55 57 59 60
23 24 24 25 25 25 25 25 25 25 25 25 25 25 26 30 34 38 44 53 64 75 84 87 89 89 90 90 90 90 89 88 87 87 88 89 89 89 89 90 90 91 90 91 91 91 91 90 89 88 87 86 86 85 85 86 87 87 87 88 87 84 82 78 75 72 71 70 68 64 57 48 43 41 41 42 44 46 49 51 53 55 57 58 59 60
24 24 24 25 25 25 25 25 25 25 25 26 25 25 26 29 34 38 42 48 56 66 77 84 88 90 90 91 90 90 89 88 87 87 88 89 89 89 90 90 90 90 90 91 91 91 91 90 90 89 88 87 87 86 86 86 87 88 88 88 86 83 80 77 74 72 71 69 66 60 51 45 42 42 43 45 47 49 51 53 55 57 58 59 60 61
26 26 26 26 25 25 26 26 26 25 26 26 26 25 25 28 33 38 42 46 51 58 68 78 86 89 91 91 91 91 90 89 88 88 88 88 89 89 90 91 91 91 91 91 91 92 92 91 90 89 89 88 88 87 87 88 88 89 89 87 85 82 78 75 73 71 70 68 62 54 46 44 43 44 46 48 49 51 54 56 58 59 60 61 61 62
27 27 27 27 26 26 26 26 26 26 26 27 26 25 25 27 32 37 41 44 48 53 60 70 80 87 90 91 91 91 91 90 90 89 89 89 89 89 90 90 91 90 90 91 91 92 92 91 91 90 90 89 89 89 89 89 90 89 88 86 83 80 77 74 72 71 70 65 57 50 44 44 45 47 49 50 52 54 57 59 60 61 61 62 62 62
27 28 27 27 27 27 26 26 27 27 27 27 26 25 25 26 30 34 39 43 46 50 54 62 72 81 88 90 91 91 91 91 91 90 90 90 90 89 89 89 89 89 89 89 90 91 92 92 92 91 91 91 91 91 91 91 90 89 87 85 83 80 77 74 72 70 67 60 53 47 44 45 47 49 52 52 54 57 60 62 62 63 63 63 63 63
28 27 27 27 28 28 27 27 28 28 28 27 27 26 25 26 28 31 36 41 46 49 51 56 64 74 83 88 90 91 91 91 91 91 91 91 91 90 90 89 88 87 86 87 88 90 91 92 92 92 92 92 92 91 91 90 90 88 87 85 82 80 76 74 71 69 64 56 50 46 45 47 49 52 53 54 56 59 62 63 64 64 65 65 65 65
28 27 27 28 28 28 28 28 28 28 28 28 27 27 26 26 27 30 34 39 44 48 51 54 59 66 76 84 89 91 91 91 91 91 92 92 92 91 91 89 88 86 85 86 88 90 92 92 92 92 92 92 92 91 91 90 89 87 86 84 82 79 76 73 70 66 60 52 47 45 46 49 51 53 54 55 58 61 64 65 66 66 66 67 67 67
29 29 29 29 29 28 28 28 28 28 28 28 28 27 27 26 27 29 32 37 42 46 50 52 55 60 68 79 86 90 91 91 91 91 92 92 92 92 91 90 89 87 86 87 89 91 91 92 92 92 92 92 92 91 90 89 88 87 85 83 81 78 75 72 68 62 55 49 46 46 47 50 52 54 55 57 60 63 65 66 67 68 68 69 68 67
30 30 30 29 29 28 28 28 28 28 28 28 28 28 28 27 27 29 32 36 41 45 50 52 53 56 61 72 81 87 91 91 91 91 92 92 92 92 92 91 90 89 88 89 90 91 91 92 92 92 92 92 91 91 90 89 87 86 85 83 80 77 73 69 64 57 50 46 46 47 49 52 54 55 56 59 62 65 67 68 69 69 70 70 70 69
32 31 31 30 29 29 29 29 29 28 29 28 28 28 28 28 27 28 31 35 40 45 50 52 53 54 57 65 74 82 88 90 91 91 92 92 92 92 92 92 91 90 90 90 90 91 91 92 92 92 92 91 91 90 89 88 87 85 84 81 78 74 71 66 60 53 46 45 46 48 51 53 55 56 58 61 65 67 69 69 70 71 72 72 72 70
33 32 31 30 30 30 30 30 29 29 29 29 29 29 29 29 28 29 31 35 40 46 51 53 53 54 55 61 68 76 84 88 91 91 91 92 92 92 92 92 92 92 91 91 91 91 91 91 92 91 91 90 90 90 89 88 86 84 82 78 75 72 69 63 55 49 45 45 47 50 53 55 56 58 61 64 67 69 70 71 72 74 75 75 73 70
33 32 32 31 31 31 31 30 30 30 30 30 30 30 30 30 29 30 31 35 40 47 53 55 54 54 54 57 63 69 77 85 89 91 91 91 92 92 92 92 92 92 92 91 91 91 91 91 91 91 90 90 89 89 88 87 85 83 80 76 73 70 65 57 51 46 44 46 49 52 55 56 58 60 63 67 70 72 73 74 76 77 78 76 74 70
33 32 32 32 32 31 31 31 31 31 31 31 31 31 31 31 31 31 32 35 41 48 54 56 56 55 54 55 58 64 71 80 87 90 91 91 91 91 92 92 92 92 92 92 92 92 92 92 91 91 90 90 89 88 87 86 84 81 78 74 71 66 59 52 47 44 45 48 51 54 56 58 60 62 66 70 72 75 77 78 80 80 79 76 74 70
32 32 32 32 32 32 32 32 32 32 32 31 31 31 31 32 32 32 33 36 42 49 56 57 57 56 55 55 56 60 66 75 83 89 91 91 91 91 91 91 92 92 92 92 92 92 92 91 91 91 90 89 88 87 86 85 83 80 76 72 67 61 53 48 45 45 47 50 53 56 58 59 61 65 69 72 75 78 80 81 82 82 79 76 73 69
32 32 32 32 32 32 32 32 32 33 32 32 31 31 31 32 33 33 33 37 43 50 57 58 57 57 56 55 56 57 62 70 79 87 91 91 91 91 91 91 91 91 92 92 92 91 91 91 91 90 90 88 87 86 85 84 82 78 74 69 63 55 48 45 45 46 49 52 55 57 59 61 64 67 71 75 78 80 82 83 83 82 79 76 73 69
32 32 32 32 32 32 32 32 33 32 32 32 31 31 31 32 33 35 35 39 45 52 58 58 58 57 57 56 56 57 59 66 75 84 90 90 91 90 90 91 91 91 91 92 91 91 91 91 90 89 88 87 86 86 85 84 81 76 71 65 57 50 45 44 45 47 50 54 56 58 60 62 66 70 74 77 80 83 84 84 84 83 80 77 73 69